EZY2W EGJJ-EGCC

Flight info

Callsign EZY2W
Flight time N/A
Altitude 19000
Route BENIX G27 AKIKI UN867 AVANT UM184 HEMEL/N0378F180 T420 ELVOS
Aircraft A20N/M-SDE2E3FGHIRWXY/LB1

Departure

Time 2026-05-04 20:18
Airport Jersey Airport (EGJJ)

Arrival

Time N/A
Airport Manchester Airport (EGCC)
Time Latitude Longitude Altitude Speed Heading
2026-05-04 20:06 49.20582 -2.19649 280 ft 0 kts 158°
2026-05-04 20:11 49.20584 -2.19650 280 ft 2 kts 157°
2026-05-04 20:11 49.20598 -2.19663 280 ft 2 kts 157°
2026-05-04 20:11 49.20614 -2.19670 280 ft 2 kts 171°
2026-05-04 20:11 49.20630 -2.19672 285 ft 2 kts 186°
2026-05-04 20:12 49.20641 -2.19669 280 ft 0 kts 204°
2026-05-04 20:14 49.20637 -2.19672 280 ft 2 kts 206°
2026-05-04 20:14 49.20616 -2.19704 280 ft 6 kts 237°
2026-05-04 20:15 49.20608 -2.19787 280 ft 10 kts 267°
2026-05-04 20:15 49.20594 -2.19909 280 ft 13 kts 242°
2026-05-04 20:15 49.20532 -2.19945 284 ft 10 kts 221°
2026-05-04 20:15 49.20529 -2.20056 280 ft 12 kts 288°
2026-05-04 20:16 49.20560 -2.20198 280 ft 16 kts 288°
2026-05-04 20:16 49.20596 -2.20374 279 ft 19 kts 285°
2026-05-04 20:16 49.20608 -2.20442 281 ft 2 kts 285°
2026-05-04 20:16 49.20615 -2.20483 279 ft 6 kts 285°
2026-05-04 20:17 49.20627 -2.20567 279 ft 10 kts 273°
2026-05-04 20:17 49.20646 -2.20682 280 ft 13 kts 312°
2026-05-04 20:17 49.20701 -2.20648 278 ft 0 kts 82°
2026-05-04 20:17 49.20706 -2.20580 278 ft 31 kts 82°
2026-05-04 20:18 49.20776 -2.19806 281 ft 112 kts 82°
2026-05-04 20:18 49.20906 -2.18366 569 ft 145 kts 81°
2026-05-04 20:18 49.21061 -2.16821 1341 ft 148 kts 79°
2026-05-04 20:18 49.21220 -2.15230 2073 ft 158 kts 80°
2026-05-04 20:19 49.21374 -2.13466 2674 ft 176 kts 81°
2026-05-04 20:19 49.21536 -2.11511 3253 ft 195 kts 81°
2026-05-04 20:19 49.21717 -2.09338 3755 ft 218 kts 81°
2026-05-04 20:19 49.21926 -2.06918 4371 ft 240 kts 79°
2026-05-04 20:20 49.22441 -2.04367 4648 ft 258 kts 62°
2026-05-04 20:20 49.23508 -2.02157 4773 ft 259 kts 47°
2026-05-04 20:20 49.24744 -2.00132 4890 ft 260 kts 47°
2026-05-04 20:20 49.25955 -1.98123 4990 ft 261 kts 47°
2026-05-04 20:21 49.27184 -1.96063 5011 ft 261 kts 47°
2026-05-04 20:21 49.28402 -1.94005 5001 ft 260 kts 47°
2026-05-04 20:21 49.30831 -1.89883 5003 ft 261 kts 47°